Location: Moscow
(55.7500°N, 37.5830°E)
Time: 20:51:26
(UTC+03:00)

ISS - Pass Details

Date: 24 May 2021
Orbit: 417 x 422 km, 51.6° (Epoch: 16 June)

Event Time Altitude Azimuth Distance (km) Brightness Sun altitude
Rises 22:26:15 0° 272° (W) 2,369 0.5 -9.2°
Reaches altitude 10° 22:28:31 10° 260° (W) 1,504 -0.7 -9.3°
Maximum altitude 22:31:26 27° 200° (SSW) 837 -2.6 -9.5°
Enters shadow 22:33:38 14° 148° (SSE) 1,258 -2.0 -9.7°
